Weather History for Moose Lake, MN

Change the Weather History Date:

Monday, May 25, 2009

  Actual Average Record
Temperature  
Mean Temperature 56 °F -  
Max Temperature 71 °F 69 °F 87 °F (1978)
Min Temperature 42 °F 40 °F 21 °F (1988)
Degree Days  
Heating Degree Days 8    
Growing Degree Days 6 (Base 50)    
Moisture  
Dew Point 35 °F    
Average Humidity 48    
Maximum Humidity 76    
Minimum Humidity 23    
Precipitation  
Precipitation 0.00 in - - ()
Sea Level Pressure  
Sea Level Pressure 30.03 in    
Wind  
Wind Speed 6 mph (East)    
Max Wind Speed 15 mph    
Max Gust Speed 22 mph    
Visibility 10 miles    
Events      
Averages and records for this station are not official NWS values.
T = Trace of Precipitation, MM = Missing Value Source: NWS Daily Summary

Daily Weather History Graph

Daily Weather History Graph

Search for Another Location

Airport:

Trip Planner

Search our weather history database for the weather conditions in past years. The results will help you decide how hot, cold, wet, or windy it might be!

Date:

Astronomy

May. 25, 2009 Rise Set
Actual Time 5:27 AM CDT 8:49 PM CDT
Civil Twilight 4:50 AM CDT 9:26 PM CDT
Nautical Twilight 4:01 AM CDT 10:15 PM CDT
Astronomical Twilight 2:59 AM CDT 11:18 PM CDT
Moon 5:58 AM CDT (5/25) 10:50 PM CDT (5/25)
Length of Visible Light 16h 36m
Length of Day
15h 22m
New Moon, 2% of the Moon is Illuminated
May 25
New Moon
May 30
First Quarter
Jun 7
Full
Jun 15
Last Quarter
Jun 22
New

Hourly Weather History & Observations

Time (CDT) Temp. Windchill Dew Point Humidity Pressure Visibility Wind Dir Wind Speed Gust Speed Precip Events Conditions
12:16 AM 48.2 °F - 30.2 °F 50% 30.13 in 10.0 mi NE 4.6 mph - N/A   Clear
12:36 AM 48.2 °F - 30.2 °F 50% 30.14 in 10.0 mi NE 3.5 mph - N/A   Clear
12:56 AM 46.4 °F 45.2 °F 32.0 °F 57% 30.14 in 10.0 mi ENE 3.5 mph - N/A   Clear
1:16 AM 46.4 °F 45.2 °F 32.0 °F 57% 30.13 in 10.0 mi NE 3.5 mph - N/A   Clear
1:36 AM 46.4 °F 44.3 °F 32.0 °F 57% 30.12 in 10.0 mi NE 4.6 mph - N/A   Clear
1:56 AM 46.4 °F 44.3 °F 32.0 °F 57% 30.12 in 10.0 mi NE 4.6 mph - N/A   Clear
2:16 AM 44.6 °F 41.4 °F 32.0 °F 61% 30.12 in 10.0 mi NE 5.8 mph - N/A   Scattered Clouds
2:36 AM 44.6 °F 40.7 °F 32.0 °F 61% 30.12 in 10.0 mi NE 6.9 mph - N/A   Scattered Clouds
2:56 AM 44.6 °F 41.4 °F 32.0 °F 61% 30.12 in 10.0 mi NE 5.8 mph - N/A   Scattered Clouds
3:16 AM 44.6 °F 42.2 °F 32.0 °F 61% 30.12 in 10.0 mi NE 4.6 mph - N/A   Clear
3:36 AM 44.6 °F 43.1 °F 32.0 °F 61% 30.11 in 10.0 mi NE 3.5 mph - N/A   Clear
3:56 AM 44.6 °F 43.1 °F 32.0 °F 61% 30.11 in 10.0 mi NE 3.5 mph - N/A   Clear
4:16 AM 44.6 °F 43.1 °F 32.0 °F 61% 30.10 in 10.0 mi NE 3.5 mph - N/A   Clear
4:36 AM 44.6 °F 43.1 °F 32.0 °F 61% 30.10 in 10.0 mi NE 3.5 mph - N/A   Clear
5:16 AM 44.6 °F 43.1 °F 33.8 °F 66% 30.11 in 10.0 mi ENE 3.5 mph - N/A   Clear
5:36 AM 44.6 °F 41.4 °F 33.8 °F 66% 30.11 in 10.0 mi NE 5.8 mph - N/A   Clear
5:56 AM 44.6 °F 42.2 °F 33.8 °F 66% 30.11 in 10.0 mi NE 4.6 mph - N/A   Clear
6:16 AM 42.8 °F 41.1 °F 35.6 °F 76% 30.11 in 10.0 mi NE 3.5 mph - N/A   Clear
6:36 AM 44.6 °F 41.4 °F 35.6 °F 71% 30.11 in 10.0 mi NE 5.8 mph - N/A   Clear
6:56 AM 44.6 °F 41.4 °F 37.4 °F 76% 30.12 in 10.0 mi NNE 5.8 mph - N/A   Clear
7:16 AM 44.6 °F 42.2 °F 35.6 °F 71% 30.12 in 10.0 mi ENE 4.6 mph - N/A   Clear
7:36 AM 46.4 °F 45.2 °F 37.4 °F 71% 30.12 in 10.0 mi NE 3.5 mph - N/A   Clear
7:56 AM 48.2 °F - 37.4 °F 66% 30.12 in 10.0 mi NNE 4.6 mph - N/A   Clear
8:16 AM 50.0 °F - 37.4 °F 62% 30.11 in 10.0 mi ENE 4.6 mph - N/A   Clear
8:36 AM 51.8 °F - 39.2 °F 62% 30.11 in 10.0 mi ENE 3.5 mph - N/A   Clear
8:56 AM 51.8 °F - 39.2 °F 62% 30.11 in 10.0 mi ENE 3.5 mph - N/A   Scattered Clouds
9:16 AM 51.8 °F - 39.2 °F 62% 30.09 in 10.0 mi ENE 3.5 mph - N/A   Mostly Cloudy
9:36 AM 53.6 °F - 41.0 °F 62% 30.09 in 10.0 mi NE 4.6 mph - N/A   Overcast
9:56 AM 53.6 °F - 41.0 °F 62% 30.08 in 10.0 mi ENE 4.6 mph - N/A   Overcast
10:16 AM 53.6 °F - 41.0 °F 62% 30.07 in 10.0 mi ENE 5.8 mph - N/A   Overcast
10:36 AM 55.4 °F - 41.0 °F 58% 30.06 in 10.0 mi ENE 4.6 mph - N/A   Overcast
10:56 AM 57.2 °F - 41.0 °F 55% 30.05 in 10.0 mi ENE 5.8 mph - N/A   Overcast
11:16 AM 57.2 °F - 42.8 °F 59% 30.04 in 10.0 mi ENE 5.8 mph - N/A   Overcast
11:36 AM 59.0 °F - 41.0 °F 51% 30.04 in 10.0 mi NE 4.6 mph - N/A   Overcast
11:56 AM 62.6 °F - 42.8 °F 48% 30.04 in 10.0 mi NE 5.8 mph - N/A   Overcast
12:16 PM 68.0 °F - 33.8 °F 28% 30.02 in 10.0 mi SE 10.4 mph 17.3 mph N/A   Overcast
12:36 PM 66.2 °F - 32.0 °F 28% 30.01 in 10.0 mi SE 9.2 mph 19.6 mph N/A   Overcast
12:56 PM 66.2 °F - 33.8 °F 30% 30.01 in 10.0 mi ESE 10.4 mph 18.4 mph N/A   Overcast
1:16 PM 68.0 °F - 33.8 °F 28% 29.99 in 10.0 mi SE 6.9 mph - N/A   Overcast
1:36 PM 68.0 °F - 32.0 °F 26% 29.99 in 10.0 mi SSE 13.8 mph 21.9 mph N/A   Overcast
1:56 PM 68.0 °F - 30.2 °F 24% 29.98 in 10.0 mi SSE 12.7 mph 21.9 mph N/A   Overcast
2:16 PM 69.8 °F - 30.2 °F 23% 29.98 in 10.0 mi SSE 9.2 mph 19.6 mph N/A   Overcast
2:36 PM 68.0 °F - 30.2 °F 24% 29.97 in 10.0 mi SSE 13.8 mph 20.7 mph N/A   Overcast
2:56 PM 69.8 °F - 32.0 °F 25% 29.96 in 10.0 mi SE 10.4 mph 17.3 mph N/A   Overcast
3:16 PM 69.8 °F - 30.2 °F 23% 29.95 in 10.0 mi SE 11.5 mph 20.7 mph N/A   Overcast
3:36 PM 69.8 °F - 32.0 °F 25% 29.92 in 10.0 mi SSE 6.9 mph 16.1 mph N/A   Overcast
3:56 PM 68.0 °F - 30.2 °F 24% 29.91 in 10.0 mi SE 9.2 mph 20.7 mph N/A   Scattered Clouds
4:17 PM 69.8 °F - 32.0 °F 25% 29.90 in 10.0 mi SE 11.5 mph 20.7 mph N/A   Scattered Clouds
4:36 PM 71.6 °F - 33.8 °F 25% 29.89 in 10.0 mi SSE 15.0 mph 20.7 mph N/A   Mostly Cloudy
4:56 PM 69.8 °F - 35.6 °F 28% 29.88 in 10.0 mi SE 8.1 mph 19.6 mph N/A   Mostly Cloudy
5:16 PM 71.6 °F - 37.4 °F 29% 29.87 in 10.0 mi SE 13.8 mph 18.4 mph N/A   Clear
5:37 PM 69.8 °F - 37.4 °F 31% 29.86 in 10.0 mi SE 10.4 mph 17.3 mph N/A   Clear
5:56 PM 69.8 °F - 37.4 °F 31% 29.86 in 10.0 mi SE 9.2 mph 17.3 mph N/A   Scattered Clouds
6:16 PM 71.6 °F - 37.4 °F 29% 29.86 in 10.0 mi SE 8.1 mph 21.9 mph N/A   Scattered Clouds
6:36 PM 71.6 °F - 41.0 °F 33% 29.85 in 10.0 mi SE 11.5 mph 17.3 mph N/A   Clear
6:56 PM 69.8 °F - 41.0 °F 35% 29.85 in 10.0 mi SE 9.2 mph 18.4 mph N/A   Clear
7:16 PM 69.8 °F - 41.0 °F 35% 29.86 in 10.0 mi SE 5.8 mph - N/A   Clear
7:36 PM 68.0 °F - 41.0 °F 37% 29.86 in 10.0 mi ESE 6.9 mph - N/A   Clear
7:56 PM 59.0 °F - 41.0 °F 51% 29.87 in 10.0 mi ENE 4.6 mph - N/A   Clear
8:16 PM 53.6 °F - 39.2 °F 58% 29.86 in 10.0 mi ENE 5.8 mph - N/A   Clear
8:36 PM 51.8 °F - 37.4 °F 58% 29.86 in 10.0 mi NE 5.8 mph - N/A   Clear
8:56 PM 50.0 °F - 37.4 °F 62% 29.88 in 10.0 mi NNE 6.9 mph - N/A   Clear
9:16 PM 46.4 °F 43.5 °F 37.4 °F 71% 29.88 in 10.0 mi ENE 5.8 mph - N/A   Clear
9:36 PM 46.4 °F 43.5 °F 35.6 °F 66% 29.89 in 10.0 mi NE 5.8 mph - N/A   Scattered Clouds
9:56 PM 44.6 °F 42.2 °F 35.6 °F 71% 29.89 in 10.0 mi NE 4.6 mph - N/A   Mostly Cloudy
10:16 PM 44.6 °F 43.1 °F 35.6 °F 71% 29.88 in 10.0 mi NE 3.5 mph - N/A   Mostly Cloudy
10:36 PM 44.6 °F 43.1 °F 35.6 °F 71% 29.89 in 10.0 mi NE 3.5 mph - N/A   Scattered Clouds
10:57 PM 42.8 °F 39.3 °F 35.6 °F 76% 29.88 in 10.0 mi NE 5.8 mph - N/A   Scattered Clouds
11:16 PM 42.8 °F 40.1 °F 35.6 °F 76% 29.88 in 10.0 mi NE 4.6 mph - N/A   Clear
11:36 PM 42.8 °F 39.3 °F 35.6 °F 76% 29.89 in 10.0 mi NE 5.8 mph - N/A   Clear
11:57 PM 42.8 °F 39.3 °F 35.6 °F 76% 29.89 in 10.0 mi NE 5.8 mph - N/A   Clear